START_TIME,STEP,MOV.,M29,t_acc.,H22,t_acc.,H26,t_acc.,H30,t_acc.
1989-08-27T12:00:32.450 ,5,0,0.,24.0,0.,24.0,0.,24.0,0.,24.0
1989-08-27T12:00:56.450 ,6,1,0.,24.0,0.,24.0,0.,24.0,0.,24.0
1989-08-27T12:01:20.450 ,6,0,0.,24.0,0.,24.0,0.,24.0,0.,24.0
1989-08-27T12:01:44.450 ,7,1,0.,24.0,0.,24.0,0.,24.0,0.,24.0
1989-08-27T12:02:08.450 ,7,0,0.,24.0,0.,24.0,0.,24.0,0.,24.0
1989-08-27T12:02:32.450 ,7,1,0.,24.0,0.,24.0,0.,24.0,0.,24.0
1989-08-27T12:02:56.450 ,7,0,0.,24.0,0.,24.0,0.,24.0,0.,24.0
1989-08-27T12:03:20.450 ,6,1,0.,24.0,0.,24.0,0.,24.0,0.,24.0
1989-08-27T12:03:44.450 ,6,0,0.,24.0,0.,24.0,0.,24.0,0.,24.0
1989-08-27T12:04:08.450 ,5,1,0.,24.0,0.,24.0,0.,24.0,0.,24.0
1989-08-27T12:04:32.450 ,5,0,0.,24.0,0.,24.0,0.,24.0,0.,24.0
1989-08-27T12:04:56.450 ,4,1,0.,24.0,0.,24.0,0.,24.0,0.,24.0
1989-08-27T12:05:20.450 ,4,0,0.,24.0,0.,24.0,0.,24.0,0.,24.0
1989-08-27T12:05:44.450 ,3,1,0.,24.0,0.,24.0,0.,24.0,0.,24.0
1989-08-27T12:06:08.450 ,3,0,0.,24.0,0.,24.0,0.,24.0,0.,24.0
1989-08-27T12:06:32.450 ,2,1,0.,24.0,0.,24.0,0.,24.0,0.,24.0
1989-08-27T12:06:56.450 ,2,0,0.,24.0,0.,24.0,0.,24.0,0.,24.0
1989-08-27T12:07:20.450 ,1,1,0.,24.0,0.,24.0,0.,24.0,0.,24.0
1989-08-27T12:07:44.450 ,1,0,0.,24.0,0.,24.0,0.,24.0,0.,24.0
1989-08-27T12:08:08.450 ,0,1,0.,24.0,0.,24.0,0.,24.0,0.,24.0
1989-08-27T12:08:32.450 ,0,0,0.,24.0,0.,24.0,0.,24.0,0.,24.0
1989-08-27T12:08:56.450 ,0,1,0.,24.0,0.,24.0,0.,24.0,0.,24.0
1989-08-27T12:09:20.450 ,0,0,0.,24.0,0.,24.0,0.,24.0,0.,24.0
1989-08-27T12:09:44.450 ,1,1,0.,24.0,0.,24.0,0.,24.0,0.,24.0
1989-08-27T12:10:08.450 ,1,0,0.,24.0,0.,24.0,0.,24.0,0.,24.0
1989-08-27T12:10:32.450 ,2,1,0.,24.0,0.,24.0,0.,24.0,0.,24.0
1989-08-27T12:10:56.450 ,2,0,0.,24.0,0.,24.0,0.,24.0,0.,24.0
1989-08-27T12:11:20.450 ,3,1,0.,24.0,0.,24.0,0.,24.0,0.,24.0
1989-08-27T12:11:44.450 ,3,0,0.,24.0,0.,24.0,0.,24.0,0.,24.0
1989-08-27T12:12:08.450 ,4,1,0.,24.0,0.,24.0,0.,24.0,0.,24.0
1989-08-27T12:12:32.450 ,4,0,0.,24.0,0.,24.0,0.,24.0,0.,24.0
1989-08-27T12:12:56.450 ,5,1,0.,24.0,0.,24.0,0.,24.0,0.,24.0
1989-08-27T12:13:20.450 ,5,0,0.,24.0,0.,24.0,0.,24.0,0.,24.0
1989-08-27T12:13:44.450 ,6,1,0.,24.0,0.,24.0,0.,24.0,0.,24.0
1989-08-27T12:14:08.450 ,6,0,0.,24.0,0.,24.0,0.,24.0,0.,24.0
1989-08-27T12:14:32.450 ,7,1,0.,24.0,0.,24.0,0.,24.0,0.,24.0
1989-08-27T12:14:56.450 ,7,0,0.,24.0,0.,24.0,0.,24.0,0.,24.0
1989-08-27T12:15:20.450 ,7,1,0.,24.0,0.,24.0,0.,24.0,0.,24.0
1989-08-27T12:15:44.450 ,7,0,0.,24.0,0.,24.0,0.,24.0,0.,24.0
1989-08-27T12:16:08.450 ,6,1,0.,24.0,0.,24.0,0.,24.0,0.,24.0
1989-08-27T12:16:32.450 ,6,0,0.,24.0,0.,24.0,0.,24.0,0.,24.0
1989-08-27T12:16:56.450 ,5,1,0.,24.0,0.,24.0,0.,24.0,0.,24.0
1989-08-27T12:17:20.450 ,5,0,0.,24.0,0.,24.0,0.,24.0,0.,24.0
1989-08-27T12:17:44.450 ,4,1,0.,24.0,0.,24.0,0.,24.0,0.,24.0
1989-08-27T12:18:08.450 ,4,0,0.,24.0,0.,24.0,0.,24.0,0.,24.0
1989-08-27T12:18:32.450 ,3,1,0.,24.0,0.,24.0,0.,24.0,0.,24.0
1989-08-27T12:18:56.450 ,3,0,0.,24.0,0.,24.0,0.,24.0,0.,24.0
1989-08-27T12:19:20.450 ,2,1,0.,24.0,0.,24.0,0.,24.0,0.,24.0
1989-08-27T12:19:44.450 ,2,0,0.,24.0,0.,24.0,0.,24.0,0.,24.0
1989-08-27T12:20:08.450 ,1,1,0.,24.0,0.,24.0,0.,24.0,0.,24.0
1989-08-27T12:20:32.450 ,1,0,0.,24.0,0.,24.0,0.,24.0,0.,24.0
1989-08-27T12:20:56.450 ,0,1,0.,24.0,0.,24.0,0.,24.0,0.,24.0
1989-08-27T12:21:20.450 ,0,0,0.,24.0,0.,24.0,0.,24.0,0.,24.0
1989-08-27T12:21:44.450 ,0,1,0.,24.0,0.,24.0,0.,24.0,0.,24.0
1989-08-27T12:22:08.450 ,0,0,0.,24.0,0.,24.0,0.,24.0,0.,24.0
1989-08-27T12:22:32.450 ,1,1,0.,24.0,0.,24.0,0.,24.0,0.,24.0
1989-08-27T12:22:56.450 ,1,0,0.,24.0,0.,24.0,0.,24.0,0.,24.0
1989-08-27T12:23:20.450 ,2,1,0.,24.0,0.,24.0,0.,24.0,0.,24.0
1989-08-27T12:23:44.450 ,2,0,0.,24.0,0.,24.0,0.,24.0,0.,24.0
1989-08-27T12:24:08.450 ,3,1,0.,24.0,0.,24.0,0.,24.0,0.,24.0
1989-08-27T12:24:32.450 ,3,0,0.,24.0,0.,24.0,0.,24.0,0.,24.0
1989-08-27T12:24:56.450 ,4,1,0.,24.0,0.,24.0,0.,24.0,0.,24.0
1989-08-27T12:25:20.450 ,4,0,0.,24.0,0.,24.0,0.,24.0,0.,24.0
1989-08-27T12:25:44.450 ,5,1,0.,24.0,0.,24.0,0.,24.0,0.,24.0
1989-08-27T12:26:08.450 ,5,0,0.,24.0,0.,24.0,0.,24.0,0.,24.0
1989-08-27T12:26:32.450 ,6,1,0.,24.0,0.,24.0,0.,24.0,0.,24.0
1989-08-27T12:26:56.450 ,6,0,0.,24.0,0.,24.0,0.,24.0,0.,24.0
1989-08-27T12:27:20.450 ,7,1,0.,24.0,0.,24.0,0.,24.0,0.,24.0
1989-08-27T12:27:44.450 ,7,0,0.,24.0,0.,24.0,0.,24.0,0.,24.0
1989-08-27T12:28:08.450 ,7,1,0.,24.0,0.,24.0,0.,24.0,0.,24.0
1989-08-27T12:28:32.450 ,7,0,0.,24.0,0.,24.0,0.,24.0,0.,24.0
1989-08-27T12:28:56.450 ,6,1,0.,24.0,0.,24.0,0.,24.0,0.,24.0
1989-08-27T12:29:20.450 ,6,0,0.,24.0,0.,24.0,0.,24.0,0.,24.0
1989-08-27T12:29:44.450 ,5,1,0.,24.0,0.,24.0,0.,24.0,0.,24.0
1989-08-27T12:30:08.450 ,5,0,0.,24.0,0.,24.0,0.,24.0,0.,24.0
1989-08-27T12:30:32.450 ,4,1,0.,24.0,0.,24.0,0.,24.0,0.,24.0
1989-08-27T12:30:56.450 ,4,0,0.,24.0,0.,24.0,0.,24.0,0.,24.0
1989-08-27T12:31:20.450 ,3,1,0.,24.0,0.,24.0,0.,24.0,0.,24.0
1989-08-27T12:31:44.450 ,3,0,0.,24.0,0.,24.0,0.,24.0,0.,24.0
1989-08-27T12:32:08.450 ,0,0,0.,24.0,0.,24.0,0.,24.0,0.,24.0
1989-08-27T12:32:32.450 ,0,0,,0,,0,,0,,0
1989-08-27T12:33:06.050 ,0,0,,0,,0,,0,,0
1989-08-27T12:33:20.450 ,0,0,0.,24.0,0.,24.0,0.,24.0,0.,24.0
1989-08-27T12:33:44.450 ,0,1,0.,24.0,0.,24.0,0.,24.0,0.,24.0
1989-08-27T12:34:08.450 ,0,0,0.,24.0,0.,24.0,0.,24.0,0.,24.0
1989-08-27T12:34:19.250 ,0,0,,0,,0,,0,,0
1989-08-27T12:34:32.450 ,0,1,0.,24.0,0.,24.0,0.,24.0,0.,24.0
1989-08-27T12:34:56.450 ,0,0,0.,24.0,0.,24.0,0.,24.0,0.,24.0
1989-08-27T12:35:20.450 ,1,1,0.,24.0,0.,24.0,0.,24.0,0.,24.0
1989-08-27T12:35:44.450 ,1,0,0.,24.0,0.,24.0,0.,24.0,0.,24.0
1989-08-27T12:36:08.450 ,2,1,0.,24.0,0.,24.0,0.,24.0,0.,24.0
1989-08-27T12:36:32.450 ,2,0,0.,24.0,0.,24.0,0.,24.0,0.,24.0
1989-08-27T12:36:56.450 ,3,1,0.,24.0,0.,24.0,0.,24.0,0.,24.0
1989-08-27T12:37:20.450 ,3,0,0.,24.0,0.,24.0,0.,24.0,0.,24.0
1989-08-27T12:37:44.450 ,4,1,0.,24.0,0.,24.0,0.,24.0,0.,24.0
1989-08-27T12:38:08.450 ,4,0,0.,24.0,0.,24.0,0.,24.0,0.,24.0
1989-08-27T12:38:32.450 ,5,1,0.,24.0,0.,24.0,0.,24.0,0.,24.0
1989-08-27T12:38:56.450 ,5,0,0.,24.0,0.,24.0,0.,24.0,0.,24.0
1989-08-27T12:39:20.450 ,6,1,0.,24.0,0.,24.0,0.,24.0,0.,24.0
1989-08-27T12:39:44.450 ,6,0,0.,24.0,0.,24.0,0.,24.0,0.,24.0
1989-08-27T12:40:08.450 ,7,1,0.,24.0,0.,24.0,0.,24.0,0.,24.0
1989-08-27T12:40:32.450 ,7,0,0.,24.0,0.,24.0,0.,24.0,0.,24.0
1989-08-27T12:40:56.450 ,7,1,0.,24.0,0.,24.0,0.,24.0,0.,24.0
1989-08-27T12:41:20.450 ,7,0,0.,24.0,0.,24.0,0.,24.0,0.,24.0
1989-08-27T12:41:44.450 ,6,1,0.,24.0,0.,24.0,0.,24.0,0.,24.0
1989-08-27T12:42:08.450 ,6,0,0.,24.0,0.,24.0,0.,24.0,0.,24.0
1989-08-27T12:42:32.450 ,5,1,0.,24.0,0.,24.0,0.,24.0,0.,24.0
1989-08-27T12:42:56.450 ,5,0,0.,24.0,0.,24.0,0.,24.0,0.,24.0
1989-08-27T12:43:20.450 ,4,1,0.,24.0,0.,24.0,0.,24.0,0.,24.0
1989-08-27T12:43:44.450 ,4,0,0.,24.0,0.,24.0,0.,24.0,0.,24.0
1989-08-27T12:44:08.450 ,3,1,0.,24.0,0.,24.0,0.,24.0,0.,24.0
1989-08-27T12:44:32.450 ,3,0,0.,24.0,0.,24.0,0.,24.0,0.,24.0
1989-08-27T12:44:56.450 ,2,1,0.,24.0,0.,24.0,0.,24.0,0.,24.0
1989-08-27T12:45:20.450 ,2,0,0.,24.0,0.,24.0,0.,24.0,0.,24.0
1989-08-27T12:45:44.450 ,1,1,0.,24.0,0.,24.0,0.,24.0,0.,24.0
1989-08-27T12:46:08.450 ,1,0,0.,24.0,0.,24.0,0.,24.0,0.,24.0
1989-08-27T12:46:32.450 ,0,1,0.,24.0,0.,24.0,0.,24.0,0.,24.0
1989-08-27T12:46:56.450 ,0,0,0.,24.0,0.,24.0,0.,24.0,0.,24.0
1989-08-27T12:47:20.450 ,0,1,0.,24.0,0.,24.0,0.,24.0,0.,24.0
1989-08-27T12:47:44.450 ,0,0,0.,24.0,0.,24.0,0.,24.0,0.,24.0
1989-08-27T12:48:08.450 ,1,1,0.,24.0,0.,24.0,0.,24.0,0.,24.0
1989-08-27T12:48:32.450 ,1,0,0.,24.0,0.,24.0,0.,24.0,0.,24.0
1989-08-27T12:48:56.450 ,2,1,0.,24.0,0.,24.0,0.,24.0,0.,24.0
1989-08-27T12:49:20.450 ,2,0,0.,24.0,0.,24.0,0.,24.0,0.,24.0
1989-08-27T12:49:44.450 ,3,1,0.,24.0,0.,24.0,0.,24.0,0.,24.0
1989-08-27T12:50:08.450 ,3,0,0.,24.0,0.,24.0,0.,24.0,0.,24.0
1989-08-27T12:50:32.450 ,4,1,0.,24.0,0.,24.0,0.,24.0,0.,24.0
1989-08-27T12:50:56.450 ,4,0,0.,24.0,0.,24.0,0.,24.0,0.,24.0
1989-08-27T12:51:20.450 ,5,1,0.,24.0,0.,24.0,0.,24.0,0.,24.0
1989-08-27T12:51:44.450 ,5,0,0.,24.0,0.,24.0,0.,24.0,0.,24.0
1989-08-27T12:52:08.450 ,6,1,0.,24.0,0.,24.0,0.,24.0,0.,24.0
1989-08-27T12:52:32.450 ,6,0,0.,24.0,0.,24.0,0.,24.0,0.,24.0
1989-08-27T12:52:56.450 ,7,1,0.,24.0,0.,24.0,0.,24.0,0.,24.0
1989-08-27T12:53:20.450 ,7,0,0.,24.0,0.,24.0,0.,24.0,0.,24.0
1989-08-27T12:53:44.450 ,7,1,0.,24.0,0.,24.0,0.,24.0,0.,24.0
1989-08-27T12:54:08.450 ,7,0,0.,24.0,0.,24.0,0.,24.0,0.,24.0
1989-08-27T12:54:32.450 ,6,1,0.,24.0,0.,24.0,0.,24.0,0.,24.0
1989-08-27T12:54:56.450 ,6,0,0.,24.0,0.,24.0,0.,24.0,0.,24.0
1989-08-27T12:55:20.450 ,5,1,0.,24.0,0.,24.0,0.,24.0,0.,24.0
1989-08-27T12:55:44.450 ,5,0,0.,24.0,0.,24.0,0.,24.0,0.,24.0
1989-08-27T12:56:08.450 ,4,1,0.,24.0,0.,24.0,0.,24.0,0.,24.0
1989-08-27T12:56:32.450 ,4,0,0.,24.0,0.,24.0,0.,24.0,0.,24.0
1989-08-27T12:56:56.450 ,3,1,0.,24.0,0.,24.0,0.,24.0,0.,24.0
1989-08-27T12:57:20.450 ,3,0,0.,24.0,0.,24.0,0.,24.0,0.,24.0
1989-08-27T12:57:44.450 ,2,1,0.,24.0,0.,24.0,0.,24.0,0.,24.0
1989-08-27T12:58:08.450 ,2,0,0.,24.0,0.,24.0,0.,24.0,0.,24.0
1989-08-27T12:58:32.450 ,1,1,0.,24.0,0.,24.0,0.,24.0,0.,24.0
1989-08-27T12:58:56.450 ,1,0,0.,24.0,0.,24.0,0.,24.0,0.,24.0
1989-08-27T12:59:20.450 ,0,1,0.,24.0,0.,24.0,0.,24.0,0.,24.0
1989-08-27T12:59:44.450 ,0,0,0.,24.0,0.,24.0,0.,24.0,0.,24.0
1989-08-27T13:00:08.450 ,0,1,0.,24.0,0.,24.0,0.,24.0,0.,24.0
1989-08-27T13:00:32.450 ,0,0,0.,24.0,0.,24.0,0.,24.0,0.,24.0
1989-08-27T13:00:56.450 ,1,1,0.,24.0,0.,24.0,0.,24.0,0.,24.0
1989-08-27T13:01:20.450 ,1,0,0.,24.0,0.,24.0,0.,24.0,0.,24.0
1989-08-27T13:01:44.450 ,2,1,0.,24.0,0.,24.0,0.,24.0,0.,24.0
1989-08-27T13:02:08.450 ,2,0,0.,24.0,0.,24.0,0.,24.0,0.,24.0
1989-08-27T13:02:32.450 ,3,1,0.,24.0,0.,24.0,0.,24.0,0.,24.0
1989-08-27T13:02:56.450 ,3,0,0.,24.0,0.,24.0,0.,24.0,0.,24.0
1989-08-27T13:03:20.450 ,4,1,0.,24.0,0.,24.0,0.,24.0,0.,24.0
1989-08-27T13:03:44.450 ,4,0,0.,24.0,0.,24.0,0.,24.0,0.,24.0
1989-08-27T13:04:08.450 ,5,1,0.,24.0,0.,24.0,0.,24.0,0.,24.0
1989-08-27T13:04:32.450 ,5,0,0.,24.0,0.,24.0,0.,24.0,0.,24.0
1989-08-27T13:04:56.450 ,6,1,0.,24.0,0.,24.0,0.,24.0,0.,24.0
1989-08-27T13:05:20.450 ,6,0,0.,24.0,0.,24.0,0.,24.0,0.,24.0
1989-08-27T13:05:44.450 ,7,1,0.,24.0,0.,24.0,0.,24.0,0.,24.0
1989-08-27T13:06:08.450 ,7,0,0.,24.0,0.,24.0,0.,24.0,0.,24.0
1989-08-27T13:06:32.450 ,7,1,0.,24.0,0.,24.0,0.,24.0,0.,24.0
1989-08-27T13:06:56.450 ,7,0,0.,24.0,0.,24.0,0.,24.0,0.,24.0
1989-08-27T13:07:20.450 ,6,1,0.,24.0,0.,24.0,0.,24.0,0.,24.0
1989-08-27T13:07:44.450 ,6,0,0.,24.0,0.,24.0,0.,24.0,0.,24.0
1989-08-27T13:08:08.450 ,5,1,0.,24.0,0.,24.0,0.,24.0,0.,24.0
1989-08-27T13:08:32.450 ,5,0,0.,24.0,0.,24.0,0.,24.0,0.,24.0
1989-08-27T13:08:56.450 ,4,1,0.,24.0,0.,24.0,0.,24.0,0.,24.0
1989-08-27T13:09:20.450 ,4,0,0.,24.0,0.,24.0,0.,24.0,0.,24.0
1989-08-27T13:09:44.450 ,3,1,0.,24.0,0.,24.0,0.,24.0,0.,24.0
1989-08-27T13:10:08.450 ,3,0,0.,24.0,0.,24.0,0.,24.0,0.,24.0
1989-08-27T13:10:32.450 ,2,1,0.,24.0,0.,24.0,0.,24.0,0.,24.0
1989-08-27T13:10:56.450 ,2,0,0.,24.0,0.,24.0,0.,24.0,0.,24.0
1989-08-27T13:11:20.450 ,1,1,0.,24.0,0.,24.0,0.,24.0,0.,24.0
1989-08-27T13:11:44.450 ,1,0,0.,24.0,0.,24.0,0.,24.0,0.,24.0
1989-08-27T13:12:08.450 ,0,1,0.,24.0,0.,24.0,0.,24.0,0.,24.0
1989-08-27T13:12:32.450 ,0,0,0.,24.0,0.,24.0,0.,24.0,0.,24.0
1989-08-27T13:13:48.650 ,0,0,0.,24.0,0.,24.0,0.,24.0,0.,24.0
1989-08-27T13:14:08.450 ,0,0,0.,24.0,0.,24.0,0.,24.0,0.,24.0
1989-08-27T13:14:32.450 ,2,1,0.,24.0,0.,24.0,0.,24.0,0.,24.0
1989-08-27T13:14:56.450 ,2,0,0.,24.0,0.,24.0,0.,24.0,0.,24.0
1989-08-27T13:15:20.450 ,3,1,0.,24.0,0.,24.0,0.,24.0,0.,24.0
1989-08-27T13:15:44.450 ,3,0,0.,24.0,0.,24.0,0.,24.0,0.,24.0
1989-08-27T13:16:08.450 ,4,1,0.,24.0,0.,24.0,0.,24.0,0.,24.0
1989-08-27T13:16:32.450 ,4,0,0.,24.0,0.,24.0,0.,24.0,0.,24.0
1989-08-27T13:16:56.450 ,5,1,0.,24.0,0.,24.0,0.,24.0,0.,24.0
1989-08-27T13:17:20.450 ,5,0,0.,24.0,0.,24.0,0.,24.0,0.,24.0
1989-08-27T13:17:44.450 ,6,1,0.,24.0,0.,24.0,0.,24.0,0.,24.0
1989-08-27T13:18:08.450 ,6,0,0.,24.0,0.,24.0,0.,24.0,0.,24.0
1989-08-27T13:18:32.440 ,7,1,0.,24.0,0.,24.0,0.,24.0,0.,24.0
1989-08-27T13:18:56.440 ,7,0,0.,24.0,0.,24.0,0.,24.0,0.,24.0
1989-08-27T13:19:20.440 ,7,1,0.,24.0,0.,24.0,0.,24.0,0.,24.0
1989-08-27T13:19:44.440 ,7,0,0.,24.0,0.,24.0,0.,24.0,0.,24.0
1989-08-27T13:20:08.440 ,6,1,0.,24.0,0.,24.0,0.,24.0,0.,24.0
1989-08-27T13:20:32.440 ,6,0,0.,24.0,0.,24.0,0.,24.0,0.,24.0
1989-08-27T13:20:56.440 ,5,1,0.,24.0,0.,24.0,0.,24.0,0.,24.0
1989-08-27T13:21:20.440 ,5,0,0.,24.0,0.,24.0,0.,24.0,0.,24.0
1989-08-27T13:21:44.440 ,4,1,0.,24.0,0.,24.0,0.,24.0,0.,24.0
1989-08-27T13:22:08.440 ,4,0,0.,24.0,0.,24.0,0.,24.0,0.,24.0
1989-08-27T13:22:32.440 ,3,1,0.,24.0,0.,24.0,0.,24.0,0.,24.0
1989-08-27T13:22:56.440 ,3,0,0.,24.0,0.,24.0,0.,24.0,0.,24.0
1989-08-27T13:23:20.440 ,2,1,0.,24.0,0.,24.0,0.,24.0,0.,24.0
1989-08-27T13:23:44.440 ,2,0,0.,24.0,0.,24.0,0.,24.0,0.,24.0
1989-08-27T13:24:08.440 ,1,1,0.,24.0,0.,24.0,0.,24.0,0.,24.0
1989-08-27T13:24:32.440 ,1,0,0.,24.0,0.,24.0,0.,24.0,0.,24.0
1989-08-27T13:24:56.440 ,0,1,0.,24.0,0.,24.0,0.,24.0,0.,24.0
1989-08-27T13:25:20.440 ,0,0,0.,24.0,0.,24.0,0.,24.0,0.,24.0
1989-08-27T13:25:44.440 ,0,1,0.,24.0,0.,24.0,0.,24.0,0.,24.0
1989-08-27T13:26:08.440 ,0,0,0.,24.0,0.,24.0,0.,24.0,0.,24.0
1989-08-27T13:26:32.440 ,1,1,0.,24.0,0.,24.0,0.,24.0,0.,24.0
1989-08-27T13:26:56.440 ,1,0,0.,24.0,0.,24.0,0.,24.0,0.,24.0
1989-08-27T13:27:20.440 ,2,1,0.,24.0,0.,24.0,0.,24.0,0.,24.0
1989-08-27T13:27:44.440 ,2,0,0.,24.0,0.,24.0,0.,24.0,0.,24.0
1989-08-27T13:28:08.440 ,3,1,0.,24.0,0.,24.0,0.,24.0,0.,24.0
1989-08-27T13:28:32.440 ,3,0,0.,24.0,0.,24.0,0.,24.0,0.,24.0
1989-08-27T13:28:56.440 ,4,1,0.,24.0,0.,24.0,0.,24.0,0.,24.0
1989-08-27T13:29:20.440 ,4,0,0.,24.0,0.,24.0,0.,24.0,0.,24.0
1989-08-27T13:29:44.440 ,5,1,0.,24.0,0.,24.0,0.,24.0,0.,24.0
1989-08-27T13:30:08.440 ,5,0,0.,24.0,0.,24.0,0.,24.0,0.,24.0
1989-08-27T13:30:32.440 ,6,1,0.,24.0,0.,24.0,0.,24.0,0.,24.0
1989-08-27T13:30:56.440 ,6,0,0.,24.0,0.,24.0,0.,24.0,0.,24.0
1989-08-27T13:31:20.440 ,7,1,0.,24.0,0.,24.0,0.,24.0,0.,24.0
1989-08-27T13:31:44.440 ,7,0,0.,24.0,0.,24.0,0.,24.0,0.,24.0
1989-08-27T13:32:08.440 ,7,1,0.,24.0,0.,24.0,0.,24.0,0.,24.0
1989-08-27T13:32:32.440 ,7,0,0.,24.0,0.,24.0,0.,24.0,0.,24.0
1989-08-27T13:32:56.440 ,6,1,0.,24.0,0.,24.0,0.,24.0,0.,24.0
1989-08-27T13:33:20.440 ,6,0,0.,24.0,0.,24.0,0.,24.0,0.,24.0
1989-08-27T13:33:44.440 ,5,1,0.,24.0,0.,24.0,0.,24.0,0.,24.0
1989-08-27T13:34:08.440 ,5,0,0.,24.0,0.,24.0,0.,24.0,0.,24.0
1989-08-27T13:34:32.440 ,4,1,0.,24.0,0.,24.0,0.,24.0,0.,24.0
1989-08-27T13:34:56.440 ,4,0,0.,24.0,0.,24.0,0.,24.0,0.,24.0
1989-08-27T13:35:20.440 ,3,1,0.,24.0,0.,24.0,0.,24.0,0.,24.0
1989-08-27T13:35:44.440 ,3,0,0.,24.0,0.,24.0,0.,24.0,0.,24.0
1989-08-27T13:36:08.440 ,2,1,0.,24.0,0.,24.0,0.,24.0,0.,24.0
1989-08-27T13:36:32.440 ,2,0,0.,24.0,0.,24.0,0.,24.0,0.,24.0
1989-08-27T13:36:56.440 ,1,1,0.,24.0,0.,24.0,0.,24.0,0.,24.0
1989-08-27T13:37:20.440 ,1,0,0.,24.0,0.,24.0,0.,24.0,0.,24.0
1989-08-27T13:37:44.440 ,0,1,0.,24.0,0.,24.0,0.,24.0,0.,24.0
1989-08-27T13:38:08.440 ,0,0,0.,24.0,0.,24.0,0.,24.0,0.,24.0
1989-08-27T13:38:32.440 ,0,1,0.,24.0,0.,24.0,0.,24.0,0.,24.0
1989-08-27T13:38:56.440 ,0,0,0.,24.0,0.,24.0,0.,24.0,0.,24.0
1989-08-27T13:39:20.440 ,1,1,0.,24.0,0.,24.0,0.,24.0,0.,24.0
1989-08-27T13:39:44.440 ,1,0,0.,24.0,0.,24.0,0.,24.0,0.,24.0
1989-08-27T13:40:08.440 ,2,1,0.,24.0,0.,24.0,0.,24.0,0.,24.0
1989-08-27T13:40:32.440 ,2,0,0.,24.0,0.,24.0,0.,24.0,0.,24.0
1989-08-27T13:40:56.440 ,3,1,0.,24.0,0.,24.0,0.,24.0,0.,24.0
1989-08-27T13:41:20.440 ,0,0,0.,24.0,0.,24.0,0.,24.0,0.,24.0
1989-08-27T13:41:44.440 ,4,1,0.,24.0,0.,24.0,0.,24.0,0.,24.0
1989-08-27T13:42:08.440 ,4,0,0.,24.0,0.,24.0,0.,24.0,0.,24.0
1989-08-27T13:42:32.440 ,5,1,0.,24.0,0.,24.0,0.,24.0,0.,24.0
1989-08-27T13:42:56.440 ,5,0,0.,24.0,0.,24.0,0.,24.0,0.,24.0
1989-08-27T13:43:20.440 ,6,1,0.,24.0,0.,24.0,0.,24.0,0.,24.0
1989-08-27T13:43:44.440 ,6,0,0.,24.0,0.,24.0,0.,24.0,0.,24.0
1989-08-27T13:44:08.440 ,7,1,0.,24.0,0.,24.0,0.,24.0,0.,24.0
1989-08-27T13:44:32.440 ,7,0,0.,24.0,0.,24.0,0.,24.0,0.,24.0
1989-08-27T13:44:56.440 ,7,1,0.,24.0,0.,24.0,0.,24.0,0.,24.0
1989-08-27T13:45:20.440 ,7,0,0.,24.0,0.,24.0,0.,24.0,0.,24.0
1989-08-27T13:45:44.440 ,6,1,0.,24.0,0.,24.0,0.,24.0,0.,24.0
1989-08-27T13:46:08.440 ,6,0,0.,24.0,0.,24.0,0.,24.0,0.,24.0
1989-08-27T13:46:32.440 ,5,1,0.,24.0,0.,24.0,0.,24.0,0.,24.0
1989-08-27T13:46:56.440 ,5,0,0.,24.0,0.,24.0,0.,24.0,0.,24.0
1989-08-27T13:47:20.440 ,4,1,0.,24.0,0.,24.0,0.,24.0,0.,24.0
1989-08-27T13:47:44.440 ,4,0,0.,24.0,0.,24.0,0.,24.0,0.,24.0
1989-08-27T13:48:08.440 ,3,1,0.,24.0,0.,24.0,0.,24.0,0.,24.0
1989-08-27T13:48:32.440 ,3,0,0.,24.0,0.,24.0,0.,24.0,0.,24.0
1989-08-27T13:48:56.440 ,2,1,0.,24.0,0.,24.0,0.,24.0,0.,24.0
1989-08-27T13:49:20.440 ,2,0,0.,24.0,0.,24.0,0.,24.0,0.,24.0
1989-08-27T13:49:44.440 ,1,1,0.,24.0,0.,24.0,0.,24.0,0.,24.0
1989-08-27T13:50:08.440 ,1,0,0.,24.0,0.,24.0,0.,24.0,0.,24.0
1989-08-27T13:50:32.440 ,0,1,0.,24.0,0.,24.0,0.,24.0,0.,24.0
1989-08-27T13:50:56.440 ,0,0,0.,24.0,0.,24.0,0.,24.0,0.,24.0
1989-08-27T13:51:20.440 ,0,1,0.,24.0,0.,24.0,0.,24.0,0.,24.0
1989-08-27T13:51:44.440 ,0,0,0.,24.0,0.,24.0,0.,24.0,0.,24.0
1989-08-27T13:52:08.440 ,1,1,0.,24.0,0.,24.0,0.,24.0,0.,24.0
1989-08-27T13:52:32.440 ,1,0,0.,24.0,0.,24.0,0.,24.0,0.,24.0
1989-08-27T13:52:56.440 ,2,1,0.,24.0,0.,24.0,0.,24.0,0.,24.0
1989-08-27T13:53:20.440 ,2,0,0.,24.0,0.,24.0,0.,24.0,0.,24.0
1989-08-27T13:53:44.440 ,3,1,0.,24.0,0.,24.0,0.,24.0,0.,24.0
1989-08-27T13:54:08.440 ,3,0,0.,24.0,0.,24.0,0.,24.0,0.,24.0
1989-08-27T13:54:32.440 ,4,1,0.,24.0,0.,24.0,0.,24.0,0.,24.0
1989-08-27T13:54:56.440 ,4,0,0.,24.0,0.,24.0,0.,24.0,0.,24.0
1989-08-27T13:55:20.440 ,5,1,0.,24.0,0.,24.0,0.,24.0,0.,24.0
1989-08-27T13:55:44.440 ,5,0,0.,24.0,0.,24.0,0.,24.0,0.,24.0
1989-08-27T13:56:08.440 ,6,1,0.,24.0,0.,24.0,0.,24.0,0.,24.0
1989-08-27T13:56:32.440 ,6,0,0.,24.0,0.,24.0,0.,24.0,0.,24.0
1989-08-27T13:56:56.440 ,7,1,0.,24.0,0.,24.0,0.,24.0,0.,24.0
1989-08-27T13:57:20.440 ,7,0,0.,24.0,0.,24.0,0.,24.0,0.,24.0
1989-08-27T13:57:44.440 ,7,1,0.,24.0,0.,24.0,0.,24.0,0.,24.0
1989-08-27T13:58:08.440 ,7,0,0.,24.0,0.,24.0,0.,24.0,0.,24.0
1989-08-27T13:58:32.440 ,6,1,0.,24.0,0.,24.0,0.,24.0,0.,24.0
1989-08-27T13:58:56.440 ,6,0,0.,24.0,0.,24.0,0.,24.0,0.,24.0
1989-08-27T13:59:20.440 ,5,1,0.,24.0,0.,24.0,0.,24.0,0.,24.0
1989-08-27T13:59:44.440 ,5,0,0.,24.0,0.,24.0,0.,24.0,0.,24.0
1989-08-27T14:00:08.440 ,4,1,0.,24.0,0.,24.0,0.,24.0,0.,24.0
1989-08-27T14:00:32.440 ,4,0,0.,24.0,0.,24.0,0.,24.0,0.,24.0
1989-08-27T14:00:56.440 ,3,1,0.,24.0,0.,24.0,0.,24.0,0.,24.0
1989-08-27T14:01:20.440 ,3,0,0.,24.0,0.,24.0,0.,24.0,0.,24.0
1989-08-27T14:01:44.440 ,2,1,0.,24.0,0.,24.0,0.,24.0,0.,24.0
1989-08-27T14:02:08.440 ,2,0,0.,24.0,0.,24.0,0.,24.0,0.,24.0
1989-08-27T14:02:32.440 ,1,1,0.,24.0,0.,24.0,0.,24.0,0.,24.0
1989-08-27T14:02:56.440 ,1,0,0.,24.0,0.,24.0,0.,24.0,0.,24.0
1989-08-27T14:03:20.440 ,0,1,0.,24.0,0.,24.0,0.,24.0,0.,24.0
1989-08-27T14:03:44.440 ,0,0,0.,24.0,0.,24.0,0.,24.0,0.,24.0
1989-08-27T14:04:08.440 ,0,1,0.,24.0,0.,24.0,0.,24.0,0.,24.0
1989-08-27T14:04:32.440 ,0,0,0.,24.0,0.,24.0,0.,24.0,0.,24.0
1989-08-27T14:04:56.440 ,1,1,0.,24.0,0.,24.0,0.,24.0,0.,24.0
1989-08-27T14:05:20.440 ,1,0,0.,24.0,0.,24.0,0.,24.0,0.,24.0
1989-08-27T14:05:44.440 ,2,1,0.,24.0,0.,24.0,0.,24.0,0.,24.0
1989-08-27T14:06:08.440 ,2,0,0.,24.0,0.,24.0,0.,24.0,0.,24.0
1989-08-27T14:06:32.440 ,3,1,0.,24.0,0.,24.0,0.,24.0,0.,24.0
1989-08-27T14:06:56.440 ,3,0,0.,24.0,0.,24.0,0.,24.0,0.,24.0
1989-08-27T14:07:20.440 ,4,1,0.,24.0,0.,24.0,0.,24.0,0.,24.0
1989-08-27T14:07:44.440 ,4,0,0.,24.0,0.,24.0,0.,24.0,0.,24.0
1989-08-27T14:08:08.440 ,5,1,0.,24.0,0.,24.0,0.,24.0,0.,24.0
1989-08-27T14:08:32.440 ,5,0,0.,24.0,0.,24.0,0.,24.0,0.,24.0
1989-08-27T14:08:56.440 ,6,1,0.,24.0,0.,24.0,0.,24.0,0.,24.0
1989-08-27T14:09:20.440 ,6,0,0.,24.0,0.,24.0,0.,24.0,0.,24.0
1989-08-27T14:09:44.440 ,7,1,0.,24.0,0.,24.0,0.,24.0,0.,24.0
1989-08-27T14:10:08.440 ,7,0,0.,24.0,0.,24.0,0.,24.0,0.,24.0
1989-08-27T14:10:32.440 ,7,1,0.,24.0,0.,24.0,0.,24.0,0.,24.0
1989-08-27T14:10:56.440 ,7,0,0.,24.0,0.,24.0,0.,24.0,0.,24.0
1989-08-27T14:11:20.440 ,6,1,0.,24.0,0.,24.0,0.,24.0,0.,24.0
1989-08-27T14:11:44.440 ,6,0,0.,24.0,0.,24.0,0.,24.0,0.,24.0
1989-08-27T14:12:08.440 ,5,1,0.,24.0,0.,24.0,0.,24.0,0.,24.0
1989-08-27T14:12:32.440 ,5,0,0.,24.0,0.,24.0,0.,24.0,0.,24.0
1989-08-27T14:12:56.440 ,4,1,0.,24.0,0.,24.0,0.,24.0,0.,24.0
1989-08-27T14:13:20.440 ,4,0,0.,24.0,0.,24.0,0.,24.0,0.,24.0
1989-08-27T14:13:44.440 ,3,1,0.,24.0,0.,24.0,0.,24.0,0.,24.0
1989-08-27T14:14:08.440 ,3,0,0.,24.0,0.,24.0,0.,24.0,0.,24.0
1989-08-27T14:14:32.440 ,2,1,0.,24.0,0.,24.0,0.,24.0,0.,24.0
1989-08-27T14:14:56.440 ,2,0,0.,24.0,0.,24.0,0.,24.0,0.,24.0
1989-08-27T14:15:20.440 ,1,1,0.,24.0,0.,24.0,0.,24.0,0.,24.0
1989-08-27T14:15:44.440 ,1,0,0.,24.0,0.,24.0,0.,24.0,0.,24.0
1989-08-27T14:16:08.440 ,0,1,0.,24.0,0.,24.0,0.,24.0,0.,24.0
1989-08-27T14:16:32.440 ,0,0,0.,24.0,0.,24.0,0.,24.0,0.,24.0
1989-08-27T14:16:56.440 ,0,1,0.,24.0,0.,24.0,0.,24.0,0.,24.0
1989-08-27T14:17:20.440 ,0,0,0.,24.0,0.,24.0,0.,24.0,0.,24.0
1989-08-27T14:17:44.440 ,1,1,0.,24.0,0.,24.0,0.,24.0,0.,24.0
1989-08-27T14:18:08.440 ,1,0,0.,24.0,0.,24.0,0.,24.0,0.,24.0
1989-08-27T14:18:32.440 ,2,1,0.,24.0,0.,24.0,0.,24.0,0.,24.0
1989-08-27T14:18:56.440 ,2,0,0.,24.0,0.,24.0,0.,24.0,0.,24.0
1989-08-27T14:19:20.440 ,3,1,0.,24.0,0.,24.0,0.,24.0,0.,24.0
1989-08-27T14:19:44.440 ,3,0,0.,24.0,0.,24.0,0.,24.0,0.,24.0
1989-08-27T14:20:08.440 ,4,1,0.,24.0,0.,24.0,0.,24.0,0.,24.0
1989-08-27T14:20:32.440 ,4,0,0.,24.0,0.,24.0,0.,24.0,0.,24.0
1989-08-27T14:20:56.440 ,5,1,0.,24.0,0.,24.0,0.,24.0,0.,24.0
1989-08-27T14:21:20.440 ,5,0,0.,24.0,0.,24.0,0.,24.0,0.,24.0
1989-08-27T14:21:44.440 ,6,1,0.,24.0,0.,24.0,0.,24.0,0.,24.0
1989-08-27T14:22:08.440 ,6,0,0.,24.0,0.,24.0,0.,24.0,0.,24.0
1989-08-27T14:22:32.440 ,7,1,0.,24.0,0.,24.0,0.,24.0,0.,24.0
1989-08-27T14:22:56.440 ,7,0,0.,24.0,0.,24.0,0.,24.0,0.,24.0
1989-08-27T14:23:20.440 ,7,1,0.,24.0,0.,24.0,0.,24.0,0.,24.0
1989-08-27T14:23:44.440 ,7,0,0.,24.0,0.,24.0,0.,24.0,0.,24.0
1989-08-27T14:24:08.440 ,6,1,0.,24.0,0.,24.0,0.,24.0,0.,24.0
1989-08-27T14:24:32.440 ,6,0,0.,24.0,0.,24.0,0.,24.0,0.,24.0
1989-08-27T14:24:56.440 ,5,1,0.,24.0,0.,24.0,0.,24.0,0.,24.0
1989-08-27T14:25:20.440 ,5,0,0.,24.0,0.,24.0,0.,24.0,0.,24.0
1989-08-27T14:25:44.440 ,4,1,0.,24.0,0.,24.0,0.,24.0,0.,24.0
1989-08-27T14:26:08.440 ,4,0,0.,24.0,0.,24.0,0.,24.0,0.,24.0
1989-08-27T14:26:32.440 ,3,1,0.,24.0,0.,24.0,0.,24.0,0.,24.0
1989-08-27T14:26:56.440 ,3,0,0.,24.0,0.,24.0,0.,24.0,0.,24.0
1989-08-27T14:27:18.640 ,0,0,,0,,0,,0,,0
1989-08-27T14:27:20.440 ,2,1,0.,24.0,0.,24.0,0.,24.0,0.,24.0
1989-08-27T14:27:44.440 ,2,0,0.,24.0,0.,24.0,0.,24.0,0.,24.0
1989-08-27T14:27:21.040 ,0,0,,0,,0,,0,,0
1989-08-27T14:27:44.440 ,0,0,,0,,0,,0,,0
1989-08-27T14:28:08.440 ,1,1,0.,24.0,0.,24.0,0.,24.0,0.,24.0
1989-08-27T14:28:32.440 ,1,0,0.,24.0,0.,24.0,0.,24.0,0.,24.0
1989-08-27T14:28:56.440 ,0,1,0.,24.0,0.,24.0,0.,24.0,0.,24.0
1989-08-27T14:29:20.440 ,0,0,0.,24.0,0.,24.0,0.,24.0,0.,24.0
1989-08-27T14:29:44.440 ,0,1,0.,24.0,0.,24.0,0.,24.0,0.,24.0
1989-08-27T14:30:08.440 ,0,0,0.,24.0,0.,24.0,0.,24.0,0.,24.0
1989-08-27T14:30:32.440 ,1,1,0.,24.0,0.,24.0,0.,24.0,0.,24.0
1989-08-27T14:30:56.440 ,1,0,0.,24.0,0.,24.0,0.,24.0,0.,24.0
1989-08-27T14:31:20.440 ,2,1,0.,24.0,0.,24.0,0.,24.0,0.,24.0
1989-08-27T14:31:44.440 ,2,0,0.,24.0,0.,24.0,0.,24.0,0.,24.0
1989-08-27T14:32:08.440 ,3,1,0.,24.0,0.,24.0,0.,24.0,0.,24.0
1989-08-27T14:32:32.440 ,3,0,0.,24.0,0.,24.0,0.,24.0,0.,24.0
1989-08-27T14:32:56.440 ,4,1,0.,24.0,0.,24.0,0.,24.0,0.,24.0
1989-08-27T14:33:20.440 ,4,0,0.,24.0,0.,24.0,0.,24.0,0.,24.0
1989-08-27T14:33:44.440 ,5,1,0.,24.0,0.,24.0,0.,24.0,0.,24.0
1989-08-27T14:34:08.440 ,5,0,0.,24.0,0.,24.0,0.,24.0,0.,24.0